Location: *
(32.3300°N, 34.8500°E)
Time: 19:52:43
(UTC+00:00)

Cosmos 2341 Rocket - Pass Details

Date: 22 October 2019
Orbit: 968 x 1004 km, 82.9° (Epoch: 18 November)

Event Time Altitude Azimuth Distance (km) Brightness Sun altitude
Rises 02:32:44 0° 189° (S) 3,672 7.0 -16.8°
Reaches altitude 10° 02:35:15 10° 191° (S) 2,722 6.3 -16.3°
Maximum altitude 02:41:28 74° 276° (W) 1,012 3.9 -15.0°
Drops below altitude 10° 02:47:42 10° 2° (N) 2,718 6.3 -13.7°
Sets 02:50:13 0° 4° (N) 3,666 7.0 -13.1°
